Location: Ottawa
(45.4167°N, 75.7000°W)
Time: 01:20:04
(UTC-04:00)

Tiangong 2 - Pass Details

Date: 14 October 2017
Orbit: 388 x 392 km, 42.8° (Epoch: 19 October)

Event Time Altitude Azimuth Distance (km) Brightness Sun altitude
Exits shadow 04:58:31 23° 110° (ESE) 876 3.4 -25.1°
Drops below altitude 10° 05:00:00 10° 96° (E) 1,422 4.8 -24.8°
Sets 05:02:08 0° 90° (E) 2,279 6.3 -24.5°
